Location: Lake Arresoe
(56.0000°N, 12.5000°E)
Time: 11:21:57
(UTC+02:00)

Resurs 1-4 Rocket - Pass Details

Date: 18 August 2020
Orbit: 799 x 815 km, 98.6° (Epoch: 23 September)

Event Time Altitude Azimuth Distance (km) Brightness Sun altitude
Rises 02:16:26 0° 19° (NNE) 3,331 6.9 -19.8°
Reaches altitude 10° 02:18:57 10° 28° (NNE) 2,393 5.7 -19.7°
Maximum altitude 02:23:53 39° 97° (E) 1,191 3.0 -19.5°
Enters shadow 02:26:36 23° 150° (SSE) 1,647 3.3 -19.3°
